sat.trackr.live / text

‹ back to catalog

STARLINK-34820

NORAD 65041 · 2025-161AC

PAYLOAD ACTIVE UNKNOWN

§ Identity

Operator
Country
US
Launch date
2025-07-30
Launch site
AFWTR
Launch vehicle
Mass (kg)
RCS (m²)

Purposes: comms

External: N2YO · Heavens-Above · Gunter

§ Orbital elements

Epoch: 2026-09-19T20:40:15.232224Z

Period
93.85 min
Inclination
53.1574°
Eccentricity
0.0000541
Mean motion
15.34395092 rev/d
Perigee alt
462.3 km
Apogee alt
463.1 km
Semi-major
6,840.9 km
B*
4.5274e-4
RAAN
108.3756°
Arg perigee
95.8666°
Mean anomaly
264.2398°
Rev number
6,401

§ Raw data

STARLINK-348201 65041U 25161AC  26262.86128741  .00014949  00000+0  45274-3 0  99972 65041  53.1574 108.3756 0000541  95.8666 264.2398 15.34395092 64019

JSON: /api/v1/satellites/65041 · /tle

For live sub-satellite position, see the globe view (requires WebGL).

§ Visibility from observer

Set your observer location to see the next 7 days of passes ≥ 10°. The values pass through the URL so the page stays shareable.

No JS? Fill the form by hand. The geolocation button needs JavaScript.